Home > Weather > Achim > Past weeks

Flag for Germany Past Weather in Achim, Lower Saxony, Germany — Yesterday and Last 2 Weeks

Now
54 °F

Partly sunny.


Feels Like: 50 °F
Forecast: 49 / 66 °F
Wind: 12 mph from Northwest

Location: Bremen Airport

Current Time: May 24, 2016 at 5:55:09 PM

Latest Report: May 24, 2016 at 5:20 PM


Visibility: N/A

Pressure: 29.95 "Hg

Humidity: 88%

Dew Point: 50 °F

Location of AchimLocation

Past Weather in Achim — Graph

°F

Achim Temperature Yesterday

Maximum temperature yesterday: 70 °F (at 3:50 PM)
Minimum temperature yesterday: 54 °F (at 10:50 PM)
Average temperature yesterday: 61 °F

High & Low Weather Summary for the Past Weeks

 TemperatureHumidityPressure
High79 °F (May 22, 1:50 PM)100% (May 16, 4:50 AM)30.07 "Hg (May 16, 4:50 AM)
Low37 °F (May 16, 4:50 AM)30% (May 9, 5:20 PM)29.59 "Hg (May 12, 3:20 PM)
Average58 °F69%29.86 "Hg
* Reported May 9 4:20 PM — May 24 4:20 PM, Achim, Weather by CustomWeather, © 2016

Note: Actual official high and low records may vary slightly from our data, if they occured in-between our weather recording intervals... More about our weather records

Advertising

Achim Weather History for the Previous 24 Hours

Scroll right to see more
 ConditionsComfort  
Time TempWeatherWind HumidityBarometerVisibility
4:20 PM
Tue, May 24
55 °FPartly sunny.9 mph82%29.95 "HgN/A
3:50 PM55 °FPartly sunny.12 mph82%29.95 "HgN/A
3:20 PM54 °FPartly sunny.12 mph88%29.95 "HgN/A
2:50 PM55 °FPartly sunny.14 mph82%29.95 "HgN/A
2:20 PM54 °FPartly sunny.13 mph82%29.95 "HgN/A
1:50 PM54 °FPartly sunny.13 mph82%29.95 "HgN/A
1:20 PM54 °FPartly sunny.13 mph82%29.95 "HgN/A
12:50 PM52 °FDrizzle. Partly sunny.12 mph88%29.95 "HgN/A
12:20 PM52 °FDrizzle. Partly sunny.14 mph88%29.95 "HgN/A
11:50 AM52 °FDrizzle. Partly sunny.13 mph88%29.95 "HgN/A
11:20 AM52 °FDrizzle. Partly sunny.14 mph88%29.95 "HgN/A
10:50 AM52 °FPartly sunny.14 mph88%29.95 "HgN/A
10:20 AM52 °FPartly sunny.15 mph88%29.95 "Hg6 mi
9:50 AM52 °FPartly sunny.14 mph88%29.95 "HgN/A
9:20 AM52 °FPartly sunny.15 mph88%29.95 "HgN/A
8:50 AM52 °FPartly sunny.14 mph88%29.92 "HgN/A
8:20 AM52 °FPartly sunny.14 mph88%29.92 "Hg6 mi
7:50 AM52 °FPartly sunny.17 mph88%29.92 "HgN/A
7:20 AM52 °FPartly sunny.17 mph88%29.92 "HgN/A
6:50 AM52 °FPartly sunny.15 mph88%29.92 "HgN/A
6:20 AM52 °FPartly sunny.13 mph88%29.92 "HgN/A
5:50 AM52 °FPassing clouds.15 mph88%29.92 "HgN/A
5:20 AM52 °FPassing clouds.17 mph88%29.92 "HgN/A
4:50 AM52 °FPassing clouds.14 mph88%29.92 "HgN/A
4:20 AM52 °FPassing clouds.20 mph94%29.89 "HgN/A
3:50 AM52 °FPassing clouds.18 mph94%29.89 "HgN/A
3:20 AM54 °FPassing clouds.16 mph88%29.92 "HgN/A
2:50 AM54 °FPassing clouds.16 mph88%29.92 "HgN/A
2:20 AM54 °FPassing clouds.15 mph88%29.92 "HgN/A
1:50 AM54 °FPassing clouds.13 mph94%29.92 "HgN/A
1:20 AM54 °FPassing clouds.14 mph94%29.92 "HgN/A
12:50 AM54 °FPassing clouds.10 mph94%29.92 "Hg5 mi
12:20 AM54 °FPassing clouds.15 mph94%29.92 "Hg5 mi
11:50 PM
Mon, May 23
54 °FPassing clouds.14 mph94%29.92 "Hg5 mi
11:20 PM54 °FPassing clouds.16 mph94%29.89 "Hg5 mi
10:50 PM54 °FPassing clouds.14 mph94%29.89 "Hg5 mi
10:20 PM55 °FPartly sunny.12 mph88%29.89 "Hg5 mi
9:50 PM55 °FPartly sunny.13 mph94%29.89 "Hg5 mi
9:20 PM55 °FPartly sunny.14 mph94%29.89 "HgN/A
8:50 PM57 °FPartly sunny.13 mph94%29.86 "HgN/A
8:20 PM57 °FPartly sunny.14 mph94%29.86 "HgN/A
7:50 PM59 °FPartly sunny.12 mph88%29.86 "HgN/A
7:20 PM59 °FSprinkles. Broken clouds.12 mph94%29.86 "HgN/A
6:50 PM59 °FSprinkles. Broken clouds.10 mph88%29.86 "HgN/A
6:20 PM61 °FPartly sunny.16 mph88%29.83 "HgN/A
5:50 PM63 °FPartly sunny.15 mph83%29.83 "HgN/A
5:20 PM68 °FBroken clouds.8 mph69%29.80 "HgN/A
Weather by CustomWeather, © 2016

See weather overviewHow to use our weather pages